Home   Weather   Belém   Past weeks

Flag for Brazil Past Weather in Belém, Pará, Brazil — Yesterday and Last 2 Weeks

Now
86 °F

Partly sunny.


Feels Like: 91 °F
Forecast: 74 / 88 °F
Wind: 13 mph from East

Location: Belem Aeroporto

Current Time: Oct 1, 2016 at 12:33:53 PM

Latest Report: Oct 1, 2016 at 12:00 PM


Visibility: N/A

Pressure: 29.92 "Hg

Humidity: 59%

Dew Point: 70 °F

Location of BelémLocation

Past Weather in Belém — Graph

°F

Belém Temperature Yesterday

Maximum temperature yesterday: 88 °F (at 12:00 PM)
Minimum temperature yesterday: 75 °F (at 5:00 AM)
Average temperature yesterday: 80 °F

High & Low Weather Summary for the Past Weeks

 TemperatureHumidityPressure
High91 °F (Sep 17, 2:00 PM)94% (Sep 17, 4:00 AM)30.01 "Hg (Sep 17, 4:00 AM)
Low73 °F (Sep 21, 6:00 AM)46% (Sep 17, 2:00 PM)29.77 "Hg (Sep 29, 4:00 PM)
Average81 °F77%29.89 "Hg
* Reported Sep 16 11:00 AM — Oct 1 11:00 AM, Belém, Weather by CustomWeather, © 2016

Note: Actual official high and low records may vary slightly from our data, if they occured in-between our weather recording intervals... More about our weather records

Advertising

Belém Weather History for the Previous 24 Hours

Scroll right to see more
 ConditionsComfort  
Time TempWeatherWind HumidityBarometerVisibility
11:00 AM
Sat, Oct 1
86 °FPartly sunny.13 mph59%29.95 "HgN/A
10:00 AM84 °FPartly sunny.14 mph66%29.95 "HgN/A
9:00 AM82 °FScattered clouds.14 mph70%29.95 "HgN/A
8:00 AM79 °FPassing clouds.7 mph79%29.92 "HgN/A
7:00 AM75 °FPassing clouds.5 mph89%29.89 "HgN/A
6:00 AM73 °FClear.2 mph94%29.86 "Hg6 mi
5:00 AM73 °FClear.2 mph94%29.83 "Hg10 mi
4:00 AM73 °FClear.3 mph94%29.83 "Hg10 mi
3:00 AM75 °FClear.2 mph89%29.83 "Hg10 mi
2:00 AM75 °FClear.2 mph89%29.83 "Hg10 mi
1:00 AM75 °FClear.5 mph89%29.86 "Hg10 mi
12:00 AM77 °FClear.6 mph83%29.89 "Hg10 mi
11:00 PM
Fri, Sep 30
77 °FClear.5 mph83%29.89 "Hg10 mi
10:00 PM77 °FClear.5 mph89%29.89 "Hg10 mi
9:00 PM79 °FPassing clouds.8 mph84%29.86 "HgN/A
8:00 PM79 °FPassing clouds.6 mph84%29.83 "HgN/A
7:00 PM81 °FPassing clouds.7 mph79%29.80 "HgN/A
6:00 PM82 °FBroken clouds.8 mph74%29.77 "HgN/A
5:00 PM84 °FBroken clouds.9 mph70%29.77 "HgN/A
4:00 PM82 °FPartly sunny.5 mph79%29.77 "HgN/A
3:00 PM79 °FLight rain. Partly sunny.3 mph89%29.80 "HgN/A
2:00 PM77 °FRain. Broken clouds.9 mph89%N/A1 mi
1:00 PM77 °FThunderstorms. Partly sunny.7 mph89%N/AN/A
12:00 PM88 °FPartly sunny.7 mph62%29.86 "HgN/A
Weather by CustomWeather, © 2016

See weather overviewHow to use our weather pages